Weather History for Glendive, MT

Change the Weather History Date:

Wednesday, October 29, 2014

  Actual Average Record
Temperature  
Mean Temperature 40 °F -  
Max Temperature 60 °F 47 °F 73 °F (2007)
Min Temperature 21 °F 26 °F 17 °F (2002)
Degree Days  
Heating Degree Days 24    
Moisture  
Dew Point 30 °F    
Average Humidity 74    
Maximum Humidity 93    
Minimum Humidity 42    
Precipitation  
Precipitation 0.00 in - - ()
Sea Level Pressure  
Sea Level Pressure 29.98 in    
Wind  
Wind Speed 7 mph (WSW)    
Max Wind Speed 28 mph    
Max Gust Speed 34 mph    
Visibility 10 miles    
Events      
Averages and records for this station are not official NWS values.
T = Trace of Precipitation, MM = Missing Value Source: NWS Daily Summary

Daily Weather History Graph

Daily Weather History Graph

Search for Another Location

Airport:

Trip Planner

Search our weather history database for the weather conditions in past years. The results will help you decide how hot, cold, wet, or windy it might be!

Date:

Astronomy

Oct. 29, 2014 Rise Set
Actual Time 7:37 AM MDT 5:47 PM MDT
Civil Twilight 7:06 AM MDT 6:18 PM MDT
Nautical Twilight 6:30 AM MDT 6:54 PM MDT
Astronomical Twilight 5:54 AM MDT 7:30 PM MDT
Moon 1:03 PM MDT (10/29) 10:56 PM MDT (10/29)
Length of Visible Light 11h 12m
Length of Day
10h 09m
Waxing Crescent, 35% of the Moon is Illuminated
Oct 29
Waxing Crescent
Oct 30
First Quarter
Nov 6
Full
Nov 14
Last Quarter
Nov 22
New

Hourly Weather History & Observations

Time (MDT) Temp. Windchill Dew Point Humidity Pressure Visibility Wind Dir Wind Speed Gust Speed Precip Events Conditions
12:15 AM 24.8 °F - 23.0 °F 93% 30.07 in 10.0 mi Calm Calm - N/A   Clear
12:35 AM 23.0 °F 17.0 °F 21.2 °F 93% 30.06 in 10.0 mi WSW 4.6 mph - N/A   Clear
12:55 AM 23.0 °F - 21.2 °F 93% 30.04 in 10.0 mi Calm Calm - N/A   Clear
1:15 AM 23.0 °F - 19.4 °F 86% 30.04 in 10.0 mi Calm Calm - N/A   Clear
1:35 AM 24.8 °F 20.5 °F 19.4 °F 80% 30.03 in 10.0 mi SSW 3.5 mph - N/A   Clear
1:55 AM 24.8 °F 20.5 °F 21.2 °F 86% 30.03 in 10.0 mi South 3.5 mph - N/A   Clear
2:15 AM 24.8 °F 20.5 °F 21.2 °F 86% 30.02 in 10.0 mi SSW 3.5 mph - N/A   Clear
2:35 AM 23.0 °F - 19.4 °F 86% 30.02 in 10.0 mi Calm Calm - N/A   Clear
2:55 AM 24.8 °F - 19.4 °F 80% 30.00 in 10.0 mi Calm Calm - N/A   Clear
3:15 AM 24.8 °F 20.5 °F 19.4 °F 80% 30.00 in 10.0 mi SSW 3.5 mph - N/A   Clear
3:35 AM 21.2 °F 13.6 °F 17.6 °F 86% 29.99 in 10.0 mi SW 5.8 mph - N/A   Clear
3:55 AM 23.0 °F 14.7 °F 19.4 °F 86% 29.97 in 10.0 mi SW 6.9 mph - N/A   Clear
4:15 AM 24.8 °F 16.9 °F 21.2 °F 86% 29.97 in 10.0 mi SW 6.9 mph - N/A   Clear
4:35 AM 24.8 °F 16.1 °F 21.2 °F 86% 29.96 in 10.0 mi SW 8.1 mph - N/A   Clear
4:55 AM 24.8 °F 15.3 °F 21.2 °F 86% 29.96 in 10.0 mi SSW 9.2 mph - N/A   Clear
5:15 AM 24.8 °F 16.9 °F 19.4 °F 80% 29.95 in 10.0 mi SW 6.9 mph - N/A   Clear
5:35 AM 26.6 °F 17.5 °F 23.0 °F 86% 29.95 in 10.0 mi SSW 9.2 mph - N/A   Clear
5:55 AM 26.6 °F 17.5 °F 23.0 °F 86% 29.95 in 10.0 mi SSW 9.2 mph - N/A   Clear
6:15 AM 26.6 °F 16.8 °F 23.0 °F 86% 29.94 in 10.0 mi SSW 10.4 mph - N/A   Clear
6:35 AM 26.6 °F 16.2 °F 23.0 °F 86% 29.94 in 10.0 mi SSW 11.5 mph - N/A   Clear
6:55 AM 28.4 °F 18.0 °F 24.8 °F 86% 29.93 in 10.0 mi SSW 12.7 mph - N/A   Clear
7:15 AM 30.2 °F 19.8 °F 24.8 °F 80% 29.93 in 10.0 mi South 13.8 mph - N/A   Clear
7:35 AM 30.2 °F 21.3 °F 24.8 °F 80% 29.93 in 10.0 mi South 10.4 mph - N/A   Clear
7:55 AM 30.2 °F 20.2 °F 24.8 °F 80% 29.93 in 10.0 mi South 12.7 mph - N/A   Clear
8:15 AM 30.2 °F 20.2 °F 24.8 °F 80% 29.93 in 10.0 mi South 12.7 mph - N/A   Scattered Clouds
8:35 AM 32.0 °F 22.5 °F 26.6 °F 80% 29.94 in 10.0 mi South 12.7 mph - N/A   Overcast
8:55 AM 32.0 °F 25.6 °F 24.8 °F 75% 29.94 in 10.0 mi South 6.9 mph - N/A   Overcast
9:15 AM 30.2 °F 23.4 °F 24.8 °F 80% 29.94 in 10.0 mi SSE 6.9 mph - N/A   Overcast
9:35 AM 30.2 °F 21.3 °F 26.6 °F 86% 29.93 in 10.0 mi SSE 10.4 mph - N/A   Mostly Cloudy
9:55 AM 32.0 °F 24.8 °F 28.4 °F 87% 29.93 in 10.0 mi South 8.1 mph - N/A   Mostly Cloudy
10:15 AM 33.8 °F 26.4 °F 28.4 °F 81% 29.93 in 10.0 mi South 9.2 mph - N/A   Overcast
10:35 AM 33.8 °F 28.6 °F 28.4 °F 81% 29.93 in 10.0 mi SSE 5.8 mph - N/A   Overcast
10:55 AM 35.6 °F 28.6 °F 30.2 °F 81% 29.93 in 10.0 mi South 9.2 mph - N/A   Overcast
11:15 AM 37.4 °F 30.8 °F 30.2 °F 75% 29.93 in 10.0 mi South 9.2 mph - N/A   Mostly Cloudy
11:35 AM 37.4 °F 32.1 °F 33.8 °F 87% 29.93 in 10.0 mi South 6.9 mph - N/A   Overcast
11:55 AM 39.2 °F 35.0 °F 33.8 °F 81% 29.93 in 10.0 mi SSE 5.8 mph - N/A   Overcast
12:15 PM 39.2 °F 34.2 °F 33.8 °F 81% 29.94 in 10.0 mi South 6.9 mph - N/A   Overcast
12:35 PM 44.6 °F 41.4 °F 37.4 °F 76% 29.94 in 10.0 mi SSW 5.8 mph - N/A   Overcast
12:55 PM 46.4 °F 43.5 °F 41.0 °F 81% 29.94 in 10.0 mi West 5.8 mph - N/A   Mostly Cloudy
1:15 PM 50.0 °F - 44.6 °F 82% 29.93 in 10.0 mi WNW 10.4 mph - N/A   Overcast
1:35 PM 51.8 °F - 44.6 °F 76% 29.93 in 10.0 mi West 13.8 mph 18.4 mph N/A   Overcast
1:55 PM 53.6 °F - 44.6 °F 72% 29.93 in 10.0 mi WNW 15.0 mph 19.6 mph N/A   Overcast
2:15 PM 53.6 °F - 42.8 °F 67% 29.93 in 10.0 mi WNW 10.4 mph - N/A   Mostly Cloudy
2:35 PM 53.6 °F - 41.0 °F 62% 29.93 in 10.0 mi West 9.2 mph - N/A   Mostly Cloudy
2:55 PM 53.6 °F - 42.8 °F 67% 29.93 in 10.0 mi West 10.4 mph - N/A   Scattered Clouds
3:15 PM 55.4 °F - 41.0 °F 58% 29.93 in 10.0 mi West 8.1 mph - N/A   Scattered Clouds
3:35 PM 57.2 °F - 39.2 °F 51% 29.93 in 10.0 mi WNW 18.4 mph 24.2 mph N/A   Partly Cloudy
3:55 PM 60.8 °F - 39.2 °F 45% 29.93 in 10.0 mi West 17.3 mph 20.7 mph N/A   Clear
4:15 PM 60.8 °F - 37.4 °F 42% 29.94 in 10.0 mi WNW 27.6 mph 34.5 mph N/A   Partly Cloudy
4:35 PM 59.0 °F - 37.4 °F 45% 29.94 in 10.0 mi WNW 24.2 mph 31.1 mph N/A   Clear
4:55 PM 57.2 °F - 35.6 °F 44% 29.95 in 10.0 mi West 20.7 mph 31.1 mph N/A   Clear
5:15 PM 55.4 °F - 35.6 °F 47% 29.96 in 10.0 mi West 17.3 mph 26.5 mph N/A   Clear
5:35 PM 53.6 °F - 35.6 °F 51% 29.96 in 10.0 mi West 9.2 mph - N/A   Clear
5:55 PM 51.8 °F - 35.6 °F 54% 29.97 in 10.0 mi WNW 9.2 mph - N/A   Clear
6:15 PM 48.2 °F - 35.6 °F 62% 29.98 in 10.0 mi WNW 11.5 mph - N/A   Clear
6:35 PM 48.2 °F - 35.6 °F 62% 29.98 in 10.0 mi WNW 12.7 mph - N/A   Clear
6:55 PM 48.2 °F - 33.8 °F 58% 30.00 in 10.0 mi West 12.7 mph - N/A   Clear
7:15 PM 46.4 °F 41.1 °F 33.8 °F 62% 30.00 in 10.0 mi West 11.5 mph - N/A   Partly Cloudy
7:35 PM 44.6 °F 39.2 °F 33.8 °F 66% 30.01 in 10.0 mi West 10.4 mph - N/A   Partly Cloudy
7:55 PM 44.6 °F 39.7 °F 33.8 °F 66% 30.01 in 10.0 mi West 9.2 mph - N/A   Scattered Clouds
8:15 PM 42.8 °F 37.0 °F 33.8 °F 70% 30.02 in 10.0 mi West 10.4 mph - N/A   Scattered Clouds
8:35 PM 46.4 °F 41.9 °F 33.8 °F 62% 30.02 in 10.0 mi WNW 9.2 mph - N/A   Mostly Cloudy
8:55 PM 44.6 °F 38.4 °F 33.8 °F 66% 30.03 in 10.0 mi WNW 12.7 mph - N/A   Partly Cloudy
9:15 PM 46.4 °F 40.7 °F 33.8 °F 62% 30.04 in 10.0 mi NW 12.7 mph - N/A   Clear
9:35 PM 42.8 °F 36.2 °F 33.8 °F 70% 30.06 in 10.0 mi NNW 12.7 mph - N/A   Clear
9:55 PM 44.6 °F 38.4 °F 35.6 °F 71% 30.07 in 10.0 mi NW 12.7 mph - N/A   Clear
10:15 PM 42.8 °F 35.8 °F 33.8 °F 70% 30.07 in 10.0 mi NNW 13.8 mph - N/A   Clear
10:35 PM 41.0 °F 33.5 °F 33.8 °F 76% 30.08 in 10.0 mi NNW 13.8 mph - N/A   Clear
10:55 PM 39.2 °F 32.0 °F 33.8 °F 81% 30.09 in 10.0 mi NNW 11.5 mph - N/A   Clear
11:15 PM 39.2 °F 34.2 °F 32.0 °F 75% 30.11 in 10.0 mi West 6.9 mph - N/A   Clear
11:35 PM 37.4 °F 30.8 °F 32.0 °F 81% 30.12 in 10.0 mi West 9.2 mph - N/A   Clear
11:55 PM 37.4 °F 30.3 °F 32.0 °F 81% 30.13 in 10.0 mi West 10.4 mph - N/A   Clear